Tracking 27420 objects as of 11-Jun-2023
HD Live streaming from Space Station
objects crossing your sky now

STARLINK-6191

Track STARLINK-6191 now!
10-day predictions
STARLINK-6191 is classified as:


NORAD ID: 56378
Int'l Code: 2023-061E
Perigee: 472.9 km
Apogee: 474.8 km
Inclination: 43.0 °
Period: 93.9 minutes
Semi major axis: 6844 km
RCS: Unknown
Launch date: May 4, 2023
Source: United States (US)
Launch site: AIR FORCE EASTERN TEST RANGE (AFETR)
Your satellite tracking list
Your tracking list is empty




NASA's NSSDC Master Catalog

Two Line Element Set (TLE):
1 56378U 23061E   23161.58334491 -.00894449  00000-0 -29863-1 0  9990
2 56378  42.9967 250.2401 0001337 284.9116 157.9438 15.33054302  6129
Source of the keplerian elements: AFSPC